Weather History for KMDJ - January, 2014

Change the Weather History Date:

Saturday, January 11, 2014

  Actual Average Record
Temperature  
Mean Temperature 66 °F -  
Max Temperature 73 °F - - ()
Min Temperature 60 °F - - ()
Cooling Degree Days 2    
Growing Degree Days 16 (Base 50)    
Moisture  
Dew Point 64 °F    
Average Humidity 86    
Maximum Humidity 94    
Minimum Humidity 55    
Precipitation  
Precipitation 0.00 in - - ()
Sea Level Pressure  
Sea Level Pressure 30.01 in    
Wind  
Wind Speed 22 mph (West)    
Max Wind Speed 46 mph    
Max Gust Speed 44 mph    
Visibility 10 miles    
Events      
T = Trace of Precipitation, MM = Missing Value Source: NWS Daily Summary

Daily Weather History Graph

Daily Weather History Graph

Search for Another Location

Airport or City:

Trip Planner

Search our weather history database for the weather conditions in past years. The results will help you decide how hot, cold, wet, or windy it might be!

Date:

Astronomy

Jan. 11, 2014 Rise Set
Actual Time 6:53 AM CST 5:21 PM CST
Civil Twilight 6:27 AM CST 5:46 PM CST
Nautical Twilight 5:58 AM CST 6:15 PM CST
Astronomical Twilight 5:30 AM CST 6:44 PM CST
Moon 2:02 PM CST (1/11) 3:02 AM CST (1/11)
Length of Visible Light 11h 19m
Length of Day
10h 27m
Waxing Gibbous, 83% of the Moon is Illuminated
Jan 11
Waxing Gibbous
Jan 15
Full
Jan 23
Last Quarter
Jan 30
New
Feb 6
First Quarter

Hourly Weather History & Observations

Time (CST) Temp. Dew Point Humidity Pressure Visibility Wind Dir Wind Speed Gust Speed Precip Events Conditions
12:15 AM 73.4 °F 69.8 °F 88% 29.97 in 10.0 mi South 19.6 mph - N/A   Mostly Cloudy
12:35 AM 73.4 °F 69.8 °F 88% 29.97 in 10.0 mi South 18.4 mph - N/A   Overcast
12:55 AM 73.4 °F 69.8 °F 88% 29.96 in 10.0 mi SSW 18.4 mph - N/A   Overcast
1:15 AM 73.4 °F 71.6 °F 94% 29.96 in 10.0 mi SSW 17.3 mph - N/A   Overcast
1:35 AM 73.4 °F 71.6 °F 94% 29.95 in 10.0 mi SSW 18.4 mph - N/A   Overcast
1:55 AM 73.4 °F 71.6 °F 94% 29.94 in 10.0 mi South 23.0 mph - N/A   Overcast
2:15 AM 73.4 °F 71.6 °F 94% 29.93 in 10.0 mi South 21.9 mph - N/A   Overcast
2:35 AM 73.4 °F 71.6 °F 94% 29.94 in 10.0 mi SSW 19.6 mph - N/A   Overcast
2:55 AM 73.4 °F 71.6 °F 94% 29.92 in 10.0 mi SSW 24.2 mph - N/A   Overcast
3:15 AM 73.4 °F 71.6 °F 94% 29.92 in 10.0 mi SSW 24.2 mph - N/A   Overcast
3:35 AM 73.4 °F 71.6 °F 94% 29.93 in 10.0 mi SSW 16.1 mph - N/A   Overcast
3:55 AM 73.4 °F 71.6 °F 94% 29.94 in 10.0 mi SW 16.1 mph - N/A   Overcast
4:15 AM 73.4 °F 71.6 °F 94% 29.94 in 10.0 mi SW 18.4 mph - N/A   Overcast
4:35 AM 73.4 °F 71.6 °F 94% 29.94 in 10.0 mi SW 17.3 mph 26.5 mph N/A   Mostly Cloudy
4:55 AM 73.4 °F 71.6 °F 94% 29.93 in 10.0 mi SW 18.4 mph 25.3 mph N/A   Mostly Cloudy
5:15 AM 73.4 °F 71.6 °F 94% 29.92 in 10.0 mi SSW 18.4 mph 24.2 mph N/A   Mostly Cloudy
5:35 AM 73.4 °F 69.8 °F 88% 29.92 in 10.0 mi SW 20.7 mph 28.8 mph N/A   Overcast
5:55 AM 73.4 °F 69.8 °F 88% 29.93 in 10.0 mi SW 24.2 mph - N/A   Overcast
6:15 AM 73.4 °F 69.8 °F 88% 29.94 in 10.0 mi SW 23.0 mph 33.4 mph N/A   Overcast
6:35 AM 73.4 °F 69.8 °F 88% 29.94 in 10.0 mi SW 19.6 mph - N/A   Overcast
6:55 AM 73.4 °F 69.8 °F 88% 29.94 in - SW 19.6 mph - N/A   Unknown
7:15 AM 73.4 °F 69.8 °F 88% 29.95 in 10.0 mi SW 20.7 mph - N/A   Overcast
7:35 AM 73.4 °F 69.8 °F 88% 29.96 in 10.0 mi SW 21.9 mph - N/A   Overcast
7:55 AM 73.4 °F 69.8 °F 88% 29.97 in 10.0 mi SW 27.6 mph - N/A   Overcast
8:15 AM 71.6 °F 69.8 °F 94% 29.98 in 10.0 mi WSW 46.0 mph - N/A   Overcast
8:35 AM 69.8 °F 66.2 °F 88% 30.00 in 10.0 mi WSW 19.6 mph 32.2 mph N/A   Overcast
8:55 AM 71.6 °F 68.0 °F 88% 30.00 in 10.0 mi West 25.3 mph - N/A   Overcast
9:15 AM 73.4 °F 69.8 °F 88% 30.01 in 10.0 mi West 26.5 mph - N/A   Overcast
9:35 AM 73.4 °F 69.8 °F 88% 30.02 in 10.0 mi West 33.4 mph - N/A   Mostly Cloudy
9:55 AM 73.4 °F 69.8 °F 88% 30.02 in 10.0 mi West 27.6 mph 34.5 mph N/A   Mostly Cloudy
10:15 AM 73.4 °F 69.8 °F 88% 30.03 in 10.0 mi West 27.6 mph 35.7 mph N/A   Mostly Cloudy
10:35 AM 73.4 °F 69.8 °F 88% 30.02 in 10.0 mi West 35.7 mph - N/A   Overcast
10:55 AM 71.6 °F 68.0 °F 88% 30.02 in 10.0 mi West 29.9 mph - N/A   Mostly Cloudy
11:15 AM 71.6 °F 68.0 °F 88% 30.01 in 10.0 mi WNW 32.2 mph - N/A   Mostly Cloudy
11:35 AM 69.8 °F 66.2 °F 88% 30.00 in 10.0 mi WNW 36.8 mph 43.7 mph N/A   Overcast
11:55 AM 68.0 °F 66.2 °F 94% 30.00 in 10.0 mi WNW 32.2 mph - N/A   Overcast
12:15 PM 68.0 °F 64.4 °F 88% 29.99 in 10.0 mi WNW 33.4 mph - N/A   Overcast
12:35 PM 68.0 °F 64.4 °F 88% 29.99 in 10.0 mi WNW 29.9 mph - N/A   Overcast
12:55 PM 68.0 °F 64.4 °F 88% 29.99 in 10.0 mi West 31.1 mph - N/A   Mostly Cloudy
1:15 PM 68.0 °F 64.4 °F 88% 29.99 in 10.0 mi West 32.2 mph - N/A   Mostly Cloudy
1:35 PM 66.2 °F 62.6 °F 88% 29.98 in 10.0 mi WNW 32.2 mph 38.0 mph N/A   Mostly Cloudy
1:55 PM 64.4 °F 62.6 °F 94% 29.98 in 10.0 mi WNW 29.9 mph 35.7 mph N/A   Mostly Cloudy
2:15 PM 64.4 °F 60.8 °F 88% 29.99 in 10.0 mi WNW 25.3 mph - N/A   Mostly Cloudy
2:35 PM 64.4 °F 60.8 °F 88% 29.99 in - West 24.2 mph - N/A   Mostly Cloudy
2:55 PM 64.4 °F 60.8 °F 88% 29.99 in 10.0 mi WNW 24.2 mph - N/A   Mostly Cloudy
3:15 PM 64.4 °F 60.8 °F 88% 29.99 in 10.0 mi West 24.2 mph - N/A   Overcast
3:35 PM 64.4 °F 60.8 °F 88% 29.99 in 10.0 mi West 25.3 mph - N/A   Overcast
3:55 PM 62.6 °F 60.8 °F 94% 30.00 in 10.0 mi WNW 25.3 mph - N/A   Overcast
4:15 PM 64.4 °F 60.8 °F 88% 30.00 in 10.0 mi West 26.5 mph - N/A   Overcast
4:35 PM 62.6 °F 60.8 °F 94% 30.01 in 10.0 mi WNW 25.3 mph - N/A   Overcast
4:55 PM 62.6 °F 60.8 °F 94% 30.01 in 10.0 mi WNW 26.5 mph - N/A   Overcast
5:15 PM 64.4 °F 60.8 °F 88% 30.02 in 10.0 mi WNW 26.5 mph - N/A   Mostly Cloudy
5:35 PM 62.6 °F 60.8 °F 94% 30.03 in 10.0 mi WNW 25.3 mph - N/A   Overcast
5:55 PM 62.6 °F 60.8 °F 94% 30.04 in 10.0 mi WNW 19.6 mph - N/A   Overcast
6:15 PM 62.6 °F 60.8 °F 94% 30.05 in 10.0 mi WNW 18.4 mph - N/A   Overcast
6:35 PM 62.6 °F 60.8 °F 94% 30.06 in 10.0 mi WNW 17.3 mph - N/A   Overcast
6:55 PM 62.6 °F 60.8 °F 94% 30.07 in 10.0 mi NW 16.1 mph - N/A   Mostly Cloudy
7:15 PM 62.6 °F 59.0 °F 88% 30.09 in 10.0 mi NW 15.0 mph - N/A   Partly Cloudy
7:35 PM 62.6 °F 59.0 °F 88% 30.10 in 10.0 mi NW 15.0 mph - N/A   Clear
7:55 PM 62.6 °F 57.2 °F 82% 30.11 in 10.0 mi NW 12.7 mph - N/A   Clear
8:15 PM 62.6 °F 57.2 °F 82% 30.12 in 10.0 mi NW 11.5 mph - N/A   Clear
8:35 PM 62.6 °F 57.2 °F 82% 30.13 in 10.0 mi NW 12.7 mph - N/A   Clear
8:55 PM 62.6 °F 53.6 °F 72% 30.14 in 10.0 mi NW 15.0 mph - N/A   Clear
9:15 PM 64.4 °F 50.0 °F 59% 30.14 in 10.0 mi NNW 17.3 mph - N/A   Clear
9:35 PM 62.6 °F 46.4 °F 55% 30.15 in 10.0 mi NNW 18.4 mph - N/A   Clear
9:55 PM 62.6 °F 46.4 °F 55% 30.15 in 10.0 mi NNW 17.3 mph - N/A   Clear
10:15 PM 62.6 °F 48.2 °F 59% 30.16 in 10.0 mi North 15.0 mph - N/A   Clear
10:35 PM 62.6 °F 48.2 °F 59% 30.16 in 10.0 mi North 15.0 mph - N/A   Clear
10:55 PM 60.8 °F 48.2 °F 63% 30.16 in 10.0 mi North 13.8 mph - N/A   Clear
11:15 PM 60.8 °F 48.2 °F 63% 30.16 in 10.0 mi North 15.0 mph - N/A   Clear
11:35 PM 60.8 °F 48.2 °F 63% 30.16 in 10.0 mi North 13.8 mph - N/A   Clear
11:55 PM 60.8 °F 48.2 °F 63% 30.16 in 10.0 mi North 11.5 mph - N/A   Clear